Powrót do katalogu

SL-14 R/B

AktywnyPO
NORAD 22652·ROCKET BODY·🇷🇺 Russia

Wystrzelony May 11, 1993 z Plesetsk Cosmodrome

Loading…

Następne Przeloty (najbliższe 24 godziny)

TLE

ŚwieżeSource: Space-Track

Epoka: Sep 14, 2026, 12:27 UTC

1 22652U 93030G   26257.51942169  .00000001  00000-0 -53123-4 0  9991
2 22652  82.5818 267.1407 0008893  95.6014  72.4271 12.63201770537312

Śledź SL-14 R/B w czasie rzeczywistym z AllMySat

Download on the App Store